Weather past 2 weeks in Cayenne, French Guiana

Now
77 °F

Clear.


Feels Like: 78 °F
Forecast: 78 / 85 °F
Wind: 1 mph from South

Location: Cayenne / Rochambeau

Current Time: Aug 20, 2014 at 9:33:38 PM

Latest Report: Aug 20, 2014 at 9:00 PM


Visibility: N/A

Pressure: 29.95 "Hg

Humidity: 83%

Dew point: 72 °F

Location of CayenneLocation

Historic Weather in Cayenne — Graph

°F

Cayenne temperature yesterday

Maximum temperature yesterday: 90 °F (at 1:00 PM)
Minimum temperature yesterday: 73 °F (at 4:30 AM)
Average temperature yesterday: 80 °F

Past Weeks' High & Low Weather Summary

 TemperatureHumidityPressure
High91 °F (Aug 15, 1:30 PM)100% (Aug 6, 2:00 AM)30.01 "Hg (Aug 6, 2:00 AM)
Low70 °F (Aug 9, 6:30 AM)49% (Aug 15, 2:00 PM)29.80 "Hg (Aug 18, 2:30 PM)
Average79 °F82%29.93 "Hg
* Reported Aug 5 8:00 PM — Aug 20 8:30 PM, Cayenne, Weather by CustomWeather, © 2014

Note: Actual official high and low records may vary slightly from our data, if they occured in-between our weather recording intervals... More about our weather records

Advertising

Cayenne weather history for previous 24 hours

 ConditionsComfort  
Time TempWeatherWind HumidityBarometerVisibility
8:30 PM
Aug 20
79 °FClear.5 mph84%29.95 "HgN/A
8:00 PM79 °FPassing clouds.2 mph84%29.92 "HgN/A
7:30 PM77 °FPartly cloudy.1 mph89%29.89 "HgN/A
7:00 PM79 °FPassing clouds.1 mph79%29.89 "HgN/A
6:30 PM81 °FBroken clouds.8 mph79%29.86 "HgN/A
6:00 PM82 °FScattered clouds.8 mph79%29.86 "HgN/A
5:30 PM84 °FLight rain. Broken clouds.9 mph79%29.83 "HgN/A
5:00 PM84 °FLight rain. Partly sunny.10 mph74%29.86 "HgN/A
4:30 PM82 °FBroken clouds.5 mph74%29.83 "HgN/A
4:00 PM84 °FLight rain. Broken clouds.8 mph79%29.86 "HgN/A
3:30 PM86 °FPartly sunny.15 mph70%29.83 "HgN/A
3:00 PM86 °FBroken clouds.9 mph75%29.86 "HgN/A
2:30 PM90 °FPartly sunny.12 mph63%29.86 "HgN/A
2:00 PM90 °FPartly sunny.6 mph55%29.86 "HgN/A
1:30 PM90 °FPassing clouds.7 mph55%29.89 "HgN/A
1:00 PM90 °FPassing clouds.7 mph55%29.89 "HgN/A
12:30 PM88 °FBroken clouds.7 mph59%29.92 "HgN/A
12:00 PM88 °FBroken clouds.9 mph62%29.92 "HgN/A
11:30 AM88 °FPartly sunny.5 mph62%29.92 "HgN/A
11:00 AM86 °FScattered clouds.7 mph66%29.92 "HgN/A
10:30 AM84 °FClear.3 mph70%29.95 "HgN/A
10:00 AM82 °FPassing clouds.7 mph74%29.95 "HgN/A
9:30 AM79 °FScattered clouds.5 mph84%29.95 "HgN/A
9:00 AM77 °FScattered clouds.5 mph89%29.95 "HgN/A
8:30 AM77 °FPartly sunny.6 mph89%29.95 "HgN/A
8:00 AM75 °FScattered clouds.3 mph94%29.92 "HgN/A
7:30 AM73 °FScattered clouds.3 mph100%29.92 "HgN/A
7:00 AM73 °FPartly sunny.3 mph94%29.92 "HgN/A
6:30 AM73 °FBroken clouds.2 mph94%29.89 "HgN/A
6:00 AM73 °FMostly cloudy.2 mph94%29.89 "HgN/A
5:30 AM73 °FMostly cloudy.3 mph94%29.89 "HgN/A
5:00 AM73 °FClear.2 mph94%29.89 "HgN/A
4:30 AM73 °FClear.No wind94%29.89 "HgN/A
4:00 AM73 °FClear.2 mph94%29.89 "HgN/A
3:30 AM73 °FClear.2 mph94%29.89 "HgN/A
3:00 AM73 °FClear.No wind94%29.89 "HgN/A
2:30 AM73 °FMostly cloudy.3 mph94%29.89 "HgN/A
2:00 AM73 °FClear.6 mph94%29.89 "HgN/A
1:30 AM73 °FLight rain. Partly cloudy.3 mph94%29.92 "Hg5 mi
1:00 AM73 °FLight rain. Overcast.9 mph94%29.92 "HgN/A
12:30 AM73 °FRain. Partly cloudy.6 mph94%29.95 "HgN/A
12:00 AM73 °FRain. Fog.6 mph94%29.95 "Hg2 mi
11:30 PM
Aug 19
73 °FHeavy rain. Partly cloudy.2 mph94%29.95 "Hg1 mi
11:00 PM75 °FStrong thunderstorms. Fog.8 mph94%29.95 "Hg0 mi
10:30 PM75 °FHeavy rain. Fog.7 mph94%29.95 "Hg1 mi
10:00 PM75 °FLight rain. Fog.6 mph94%29.95 "Hg3 mi
9:30 PM75 °FRain. Fog.3 mph94%29.95 "Hg1 mi
9:00 PM75 °FLight rain. Overcast.5 mph94%29.92 "Hg4 mi
Weather by CustomWeather, © 2014

See weather overviewHow to use our weather pages